| time (UTC) | temp C | wind direction | speed KPH | gust KPH | rain 1hr cm | rain 24hr cm | rain mn cm | humidity % | barometer mb |
| 20260503190019 | 17 | 197 | 9.7 | 20.9 | 0.00 | 0.00 | 0.00 | 27 | 1006.7 |
| 20260503185516 | 16 | 328 | 11.3 | 24.1 | 0.00 | 0.00 | 0.00 | 30 | 1006.7 |
| 20260503185015 | 17 | 235 | 6.4 | 12.9 | 0.00 | 0.00 | 0.00 | 29 | 1007.1 |
| 20260503184512 | 16 | 17 | 6.4 | 9.7 | 0.00 | 0.00 | 0.00 | 30 | 1006.9 |
| 20260503184008 | 15 | 301 | 19.3 | 20.9 | 0.00 | 0.00 | 0.00 | 30 | 1006.9 |
| 20260503183505 | 15 | 283 | 8.0 | 24.1 | 0.00 | 0.00 | 0.00 | 31 | 1006.8 |
| 20260503183002 | 16 | 250 | 4.8 | 14.5 | 0.00 | 0.00 | 0.00 | 30 | 1006.8 |
| 20260503182500 | 15 | 19 | 22.5 | 25.7 | 0.00 | 0.00 | 0.00 | 32 | 1007.1 |
| 20260503181957 | 15 | 275 | 4.8 | 22.5 | 0.00 | 0.00 | 0.00 | 33 | 1007.1 |
| 20260503181454 | 15 | 315 | 12.9 | 22.5 | 0.00 | 0.00 | 0.00 | 31 | 1007.0 |
| 20260503180950 | 16 | 319 | 20.9 | 29.0 | 0.00 | 0.00 | 0.00 | 29 | 1007.1 |
| 20260503180449 | 15 | 326 | 8.0 | 29.0 | 0.00 | 0.00 | 0.00 | 30 | 1007.0 |
| 20260503175945 | 15 | 3 | 11.3 | 32.2 | 0.00 | 0.00 | 0.00 | 29 | 1007.3 |
| 20260503175443 | 15 | 319 | 20.9 | 33.8 | 0.00 | 0.00 | 0.00 | 29 | 1007.2 |
| 20260503174939 | 15 | 33 | 16.1 | 24.1 | 0.00 | 0.00 | 0.00 | 27 | 1007.3 |
| 20260503174437 | 15 | 321 | 22.5 | 27.4 | 0.00 | 0.00 | 0.00 | 28 | 1007.1 |
| 20260503173932 | 15 | 338 | 14.5 | 22.5 | 0.00 | 0.00 | 0.00 | 29 | 1007.1 |
| 20260503173428 | 16 | 345 | 11.3 | 17.7 | 0.00 | 0.00 | 0.00 | 26 | 1007.2 |
| 20260503172925 | 16 | 307 | 11.3 | 17.7 | 0.00 | 0.00 | 0.00 | 25 | 1007.3 |
| 20260503172423 | 16 | 7 | 11.3 | 22.5 | 0.00 | 0.00 | 0.00 | 30 | 1007.3 |
| 20260503171919 | 16 | 296 | 6.4 | 17.7 | 0.00 | 0.00 | 0.00 | 29 | 1007.4 |
| 20260503171416 | 16 | 306 | 6.4 | 14.5 | 0.00 | 0.00 | 0.00 | 33 | 1007.2 |
| 20260503170913 | 15 | 120 | 6.4 | 24.1 | 0.00 | 0.00 | 0.00 | 36 | 1007.2 |
| 20260503170409 | 16 | 311 | 11.3 | 29.0 | 0.00 | 0.00 | 0.00 | 38 | 1007.2 |
| 20260503150802 | 15 | 265 | 9.7 | 17.7 | 0.00 | 0.00 | 0.00 | 60 | 1007.4 |
| 20260503150257 | 15 | 357 | 4.8 | 22.5 | 0.00 | 0.00 | 0.00 | 60 | 1007.3 |
| 20260503140222 | 13 | 179 | 6.4 | 11.3 | 0.00 | 0.00 | 0.00 | 65 | 1008.4 |
| 20260503131151 | 11 | 265 | 11.3 | 17.7 | 0.00 | 0.00 | 0.00 | 73 | 1008.3 |
| 20260503130649 | 11 | 314 | 11.3 | 14.5 | 0.00 | 0.00 | 0.00 | 73 | 1008.4 |
| 20260503130147 | 11 | 302 | 8.0 | 17.7 | 0.00 | 0.00 | 0.00 | 75 | 1008.6 |
| 20260503120112 | 7 | 327 | 8.0 | 14.5 | 0.00 | 0.00 | 0.00 | 84 | 1008.8 |
| 20260503110539 | 3 | 286 | 0.0 | 8.0 | 0.00 | 0.00 | 0.00 | 90 | 1008.9 |
| 20260503090426 | 3 | 335 | 3.2 | 3.2 | 0.00 | 0.00 | 0.00 | 75 | 1009.9 |
| 20260503081352 | 2 | 315 | 1.6 | 3.2 | 0.00 | 0.00 | 0.00 | 75 | 1010.5 |
| 20260503080849 | 2 | 331 | 3.2 | 3.2 | 0.00 | 0.00 | 0.00 | 75 | 1010.5 |
| 20260503080346 | 2 | 329 | 1.6 | 3.2 | 0.00 | 0.00 | 0.00 | 80 | 1010.4 |
| 20260503072823 | 3 | 339 | 1.6 | 3.2 | 0.00 | 0.00 | 0.00 | 71 | 1010.6 |
| 20260503072320 | 3 | 340 | 1.6 | 3.2 | 0.00 | 0.00 | 0.00 | 69 | 1010.8 |
| 20260503071816 | 4 | 340 | 1.6 | 1.6 | 0.00 | 0.00 | 0.00 | 71 | 1010.9 |
| 20260503071313 | 4 | 341 | 1.6 | 1.6 | 0.00 | 0.00 | 0.00 | 70 | 1010.6 |
| 20260503070809 | 4 | 341 | 1.6 | 1.6 | 0.00 | 0.00 | 0.00 | 71 | 1010.9 |
| 20260503070302 | 5 | 341 | 0.0 | 1.6 | 0.00 | 0.00 | 0.00 | 69 | 1010.8 |
| 20260503060227 | 5 | 343 | 1.6 | 3.2 | 0.00 | 0.00 | 0.00 | 60 | 1011.6 |
| 20260503054713 | 5 | 344 | 0.0 | 0.0 | 0.00 | 0.00 | 0.00 | 63 | 1011.6 |
| 20260503054211 | 5 | 340 | 1.6 | 3.2 | 0.00 | 0.00 | 0.00 | 64 | 1011.8 |
| 20260503053709 | 5 | 325 | 1.6 | 1.6 | 0.00 | 0.00 | 0.00 | 67 | 1011.7 |
| 20260503053207 | 5 | 323 | 3.2 | 3.2 | 0.00 | 0.00 | 0.00 | 68 | 1011.7 |
| 20260503052703 | 6 | 324 | 0.0 | 1.6 | 0.00 | 0.00 | 0.00 | 59 | 1011.8 |
| 20260503052159 | 6 | 324 | 3.2 | 3.2 | 0.00 | 0.00 | 0.00 | 62 | 1011.8 |
| 20260503051655 | 5 | 342 | 1.6 | 3.2 | 0.00 | 0.00 | 0.00 | 59 | 1011.8 |
| 20260503051153 | 6 | 323 | 0.0 | 1.6 | 0.00 | 0.00 | 0.00 | 57 | 1011.8 |
| 20260503050649 | 6 | 322 | 1.6 | 1.6 | 0.00 | 0.00 | 0.00 | 64 | 1011.8 |
| 20260503050146 | 6 | 323 | 1.6 | 1.6 | 0.00 | 0.00 | 0.00 | 63 | 1011.8 |
| 20260503045643 | 6 | 322 | 1.6 | 1.6 | 0.00 | 0.00 | 0.00 | 65 | 1012.0 |
| 20260503045140 | 6 | 322 | 0.0 | 3.2 | 0.00 | 0.00 | 0.00 | 62 | 1011.9 |
| 20260503044637 | 6 | 332 | 0.0 | 0.0 | 0.00 | 0.00 | 0.00 | 60 | 1012.0 |
| 20260503044135 | 6 | 331 | 3.2 | 3.2 | 0.00 | 0.00 | 0.00 | 61 | 1012.0 |
| 20260503043631 | 6 | 333 | 1.6 | 1.6 | 0.00 | 0.00 | 0.00 | 60 | 1012.0 |
| 20260503043128 | 6 | 338 | 1.6 | 1.6 | 0.00 | 0.00 | 0.00 | 61 | 1012.3 |
| 20260503042624 | 6 | 354 | 3.2 | 3.2 | 0.00 | 0.00 | 0.00 | 59 | 1012.1 |
| 20260503042120 | 6 | 327 | 0.0 | 1.6 | 0.00 | 0.00 | 0.00 | 59 | 1012.3 |
| 20260503041617 | 6 | 335 | 3.2 | 3.2 | 0.00 | 0.00 | 0.00 | 53 | 1012.2 |
| 20260503041115 | 6 | 337 | 1.6 | 3.2 | 0.00 | 0.00 | 0.00 | 59 | 1012.4 |
| 20260503040612 | 6 | 335 | 1.6 | 1.6 | 0.00 | 0.00 | 0.00 | 57 | 1012.4 |
| 20260503040110 | 6 | 109 | 0.0 | 3.2 | 0.00 | 0.00 | 0.00 | 54 | 1012.6 |
| 20260503035606 | 6 | 319 | 3.2 | 4.8 | 0.00 | 0.00 | 0.00 | 61 | 1012.7 |
| 20260503035104 | 6 | 9 | 0.0 | 1.6 | 0.00 | 0.00 | 0.00 | 52 | 1012.6 |
| 20260503034601 | 6 | 10 | 1.6 | 1.6 | 0.00 | 0.00 | 0.00 | 58 | 1012.6 |
| 20260503034058 | 6 | 354 | 1.6 | 3.2 | 0.00 | 0.00 | 0.00 | 64 | 1012.8 |
| 20260503033555 | 6 | 355 | 1.6 | 3.2 | 0.00 | 0.00 | 0.00 | 65 | 1013.0 |
| 20260503033053 | 6 | 356 | 1.6 | 3.2 | 0.00 | 0.00 | 0.00 | 63 | 1013.1 |
| 20260503032551 | 6 | 359 | 0.0 | 1.6 | 0.00 | 0.00 | 0.00 | 57 | 1012.8 |
| 20260503032049 | 6 | 358 | 1.6 | 1.6 | 0.00 | 0.00 | 0.00 | 61 | 1012.9 |
| 20260503031546 | 6 | 358 | 1.6 | 3.2 | 0.00 | 0.00 | 0.00 | 63 | 1013.0 |
| 20260503031043 | 6 | 359 | 1.6 | 1.6 | 0.00 | 0.00 | 0.00 | 65 | 1013.3 |
| 20260503030539 | 6 | 356 | 1.6 | 1.6 | 0.00 | 0.00 | 0.00 | 65 | 1013.2 |
| 20260503030037 | 6 | 2 | 1.6 | 1.6 | 0.00 | 0.00 | 0.00 | 65 | 1013.3 |
| 20260503025533 | 6 | 3 | 1.6 | 1.6 | 0.00 | 0.00 | 0.00 | 66 | 1013.2 |
| 20260503025031 | 6 | 4 | 1.6 | 3.2 | 0.00 | 0.00 | 0.00 | 58 | 1013.1 |
| 20260503024527 | 6 | 329 | 0.0 | 1.6 | 0.00 | 0.00 | 0.00 | 62 | 1013.3 |
| 20260503024025 | 6 | 329 | 0.0 | 1.6 | 0.00 | 0.00 | 0.00 | 64 | 1013.3 |
| 20260503023521 | 6 | 329 | 1.6 | 1.6 | 0.00 | 0.00 | 0.00 | 61 | 1013.3 |
| 20260503023019 | 6 | 329 | 1.6 | 1.6 | 0.00 | 0.00 | 0.00 | 63 | 1013.5 |
| 20260503022514 | 6 | 329 | 1.6 | 3.2 | 0.00 | 0.00 | 0.00 | 59 | 1013.3 |
| 20260503022009 | 6 | 338 | 3.2 | 3.2 | 0.00 | 0.00 | 0.00 | 55 | 1013.5 |
| 20260503021506 | 6 | 16 | 0.0 | 3.2 | 0.00 | 0.00 | 0.00 | 48 | 1013.4 |
| 20260503021003 | 6 | 25 | 1.6 | 3.2 | 0.00 | 0.00 | 0.00 | 49 | 1013.4 |
| 20260503020500 | 6 | 7 | 1.6 | 4.8 | 0.00 | 0.00 | 0.00 | 51 | 1013.5 |
| 20260503015957 | 6 | 49 | 3.2 | 3.2 | 0.00 | 0.00 | 0.00 | 52 | 1013.7 |
| 20260503015454 | 6 | 88 | 1.6 | 3.2 | 0.00 | 0.00 | 0.00 | 53 | 1013.6 |
| 20260503014950 | 6 | 142 | 1.6 | 1.6 | 0.00 | 0.00 | 0.00 | 53 | 1013.6 |
| 20260503014447 | 6 | 141 | 0.0 | 1.6 | 0.00 | 0.00 | 0.00 | 52 | 1013.6 |
| 20260503013945 | 6 | 142 | 1.6 | 1.6 | 0.00 | 0.00 | 0.00 | 56 | 1013.9 |
| 20260503013442 | 6 | 142 | 1.6 | 1.6 | 0.00 | 0.00 | 0.00 | 55 | 1013.9 |
| 20260503012939 | 6 | 142 | 0.0 | 0.0 | 0.00 | 0.00 | 0.00 | 54 | 1013.8 |
| 20260503012437 | 6 | 142 | 0.0 | 1.6 | 0.00 | 0.00 | 0.00 | 54 | 1014.2 |
| 20260503011933 | 7 | 142 | 0.0 | 0.0 | 0.00 | 0.00 | 0.00 | 54 | 1013.9 |
| 20260503011430 | 7 | 142 | 0.0 | 0.0 | 0.00 | 0.00 | 0.00 | 51 | 1013.9 |
| 20260503010927 | 6 | 142 | 0.0 | 1.6 | 0.00 | 0.00 | 0.00 | 53 | 1013.8 |
| 20260503010424 | 7 | 142 | 0.0 | 1.6 | 0.00 | 0.00 | 0.00 | 54 | 1013.8 |
| 20260503005921 | 6 | 142 | 1.6 | 1.6 | 0.00 | 0.00 | 0.00 | 52 | 1013.8 |
| 20260503005418 | 7 | 143 | 0.0 | 1.6 | 0.00 | 0.00 | 0.00 | 55 | 1014.0 |
| 20260503004915 | 7 | 142 | 0.0 | 1.6 | 0.00 | 0.00 | 0.00 | 54 | 1014.3 |
| 20260503004412 | 7 | 143 | 1.6 | 1.6 | 0.00 | 0.00 | 0.00 | 50 | 1014.0 |
| 20260503003909 | 7 | 143 | 0.0 | 0.0 | 0.00 | 0.00 | 0.00 | 48 | 1014.4 |
| 20260503003405 | 8 | 143 | 0.0 | 0.0 | 0.00 | 0.00 | 0.00 | 46 | 1014.2 |
| 20260503002903 | 8 | 142 | 0.0 | 1.6 | 0.00 | 0.00 | 0.00 | 45 | 1014.4 |
| 20260503002400 | 7 | 141 | 0.0 | 1.6 | 0.00 | 0.00 | 0.00 | 45 | 1014.3 |
| 20260503001856 | 8 | 158 | 0.0 | 1.6 | 0.00 | 0.00 | 0.00 | 45 | 1014.6 |
| 20260503001353 | 8 | 144 | 3.2 | 4.8 | 0.00 | 0.00 | 0.00 | 44 | 1014.5 |
| 20260503000850 | 8 | 196 | 3.2 | 3.2 | 0.00 | 0.00 | 0.00 | 43 | 1014.6 |
| 20260503000348 | 8 | 182 | 3.2 | 4.8 | 0.00 | 0.00 | 0.00 | 43 | 1014.5 |
| 20260502235844 | 8 | 154 | 0.0 | 4.8 | 0.00 | 0.00 | 0.00 | 42 | 1014.6 |
| 20260502235341 | 8 | 155 | 1.6 | 1.6 | 0.00 | 0.00 | 0.00 | 43 | 1014.8 |
| 20260502234838 | 8 | 151 | 1.6 | 3.2 | 0.00 | 0.00 | 0.00 | 42 | 1014.7 |
| 20260502234335 | 8 | 147 | 0.0 | 0.0 | 0.00 | 0.00 | 0.00 | 43 | 1014.7 |
| 20260502233832 | 8 | 159 | 0.0 | 1.6 | 0.00 | 0.00 | 0.00 | 44 | 1014.8 |
| 20260502233328 | 8 | 156 | 1.6 | 1.6 | 0.00 | 0.00 | 0.00 | 43 | 1015.0 |
| 20260502232825 | 8 | 167 | 0.0 | 3.2 | 0.00 | 0.00 | 0.00 | 43 | 1015.1 |
| 20260502232321 | 8 | 147 | 4.8 | 4.8 | 0.00 | 0.00 | 0.00 | 43 | 1015.0 |
| 20260502231818 | 8 | 182 | 3.2 | 3.2 | 0.00 | 0.00 | 0.00 | 43 | 1015.0 |
| 20260502231316 | 8 | 186 | 4.8 | 9.7 | 0.00 | 0.00 | 0.00 | 41 | 1015.1 |
| 20260502230814 | 8 | 162 | 4.8 | 8.0 | 0.00 | 0.00 | 0.00 | 43 | 1015.1 |
| 20260502230312 | 8 | 215 | 4.8 | 8.0 | 0.00 | 0.00 | 0.00 | 43 | 1015.2 |
| 20260502225808 | 8 | 149 | 4.8 | 8.0 | 0.00 | 0.00 | 0.00 | 43 | 1015.0 |
| 20260502225305 | 9 | 155 | 4.8 | 9.7 | 0.00 | 0.00 | 0.00 | 41 | 1015.4 |
| 20260502224801 | 10 | 194 | 1.6 | 4.8 | 0.00 | 0.00 | 0.00 | 42 | 1015.3 |
| 20260502224258 | 10 | 210 | 4.8 | 9.7 | 0.00 | 0.00 | 0.00 | 42 | 1015.2 |
| 20260502223756 | 8 | 175 | 4.8 | 8.0 | 0.00 | 0.00 | 0.00 | 44 | 1015.3 |
| 20260502223254 | 10 | 202 | 4.8 | 8.0 | 0.00 | 0.00 | 0.00 | 42 | 1015.6 |
| 20260502222751 | 10 | 201 | 6.4 | 9.7 | 0.00 | 0.00 | 0.00 | 41 | 1015.5 |
| 20260502222248 | 10 | 183 | 19.3 | 24.1 | 0.00 | 0.00 | 0.00 | 41 | 1015.7 |
| 20260502221743 | 10 | 217 | 11.3 | 16.1 | 0.00 | 0.00 | 0.00 | 42 | 1015.6 |
| 20260502221240 | 9 | 134 | 3.2 | 22.5 | 0.00 | 0.00 | 0.00 | 43 | 1015.7 |
| 20260502220737 | 10 | 185 | 1.6 | 3.2 | 0.00 | 0.00 | 0.00 | 44 | 1015.6 |
| 20260502220233 | 8 | 173 | 1.6 | 12.9 | 0.00 | 0.00 | 0.00 | 45 | 1015.9 |
| 20260502215730 | 8 | 159 | 8.0 | 14.5 | 0.00 | 0.00 | 0.00 | 46 | 1015.8 |
| 20260502215227 | 10 | 193 | 4.8 | 8.0 | 0.00 | 0.00 | 0.00 | 45 | 1015.9 |
| 20260502214724 | 10 | 211 | 1.6 | 4.8 | 0.00 | 0.00 | 0.00 | 43 | 1016.2 |
| 20260502214221 | 9 | 166 | 0.0 | 3.2 | 0.00 | 0.00 | 0.00 | 46 | 1016.2 |
| 20260502213718 | 10 | 226 | 4.8 | 8.0 | 0.00 | 0.00 | 0.00 | 44 | 1016.1 |
| 20260502213216 | 9 | 180 | 9.7 | 14.5 | 0.00 | 0.00 | 0.00 | 47 | 1016.5 |
| 20260502212714 | 9 | 193 | 3.2 | 8.0 | 0.00 | 0.00 | 0.00 | 46 | 1016.1 |
| 20260502212212 | 10 | 171 | 8.0 | 11.3 | 0.00 | 0.00 | 0.00 | 47 | 1016.4 |
| 20260502211708 | 10 | 138 | 11.3 | 14.5 | 0.00 | 0.00 | 0.00 | 44 | 1016.4 |
| 20260502211205 | 10 | 134 | 8.0 | 11.3 | 0.00 | 0.00 | 0.00 | 47 | 1016.2 |
| 20260502210702 | 10 | 204 | 8.0 | 12.9 | 0.00 | 0.00 | 0.00 | 45 | 1016.3 |
| 20260502210159 | 10 | 276 | 4.8 | 9.7 | 0.00 | 0.00 | 0.00 | 42 | 1016.4 |
| 20260502205656 | 10 | 216 | 9.7 | 12.9 | 0.00 | 0.00 | 0.00 | 46 | 1016.4 |
| 20260502205153 | 10 | 214 | 8.0 | 14.5 | 0.00 | 0.00 | 0.00 | 45 | 1016.7 |
| 20260502204649 | 10 | 245 | 6.4 | 9.7 | 0.00 | 0.00 | 0.00 | 45 | 1016.8 |
| 20260502204147 | 11 | 243 | 8.0 | 12.9 | 0.00 | 0.00 | 0.00 | 45 | 1016.8 |
| 20260502203644 | 10 | 186 | 11.3 | 20.9 | 0.00 | 0.00 | 0.00 | 46 | 1016.7 |
| 20260502203143 | 11 | 209 | 12.9 | 16.1 | 0.00 | 0.00 | 0.00 | 43 | 1017.0 |
| 20260502202637 | 12 | 198 | 6.4 | 20.9 | 0.00 | 0.00 | 0.00 | 44 | 1017.2 |
| 20260502202135 | 11 | 255 | 8.0 | 12.9 | 0.00 | 0.00 | 0.00 | 45 | 1017.2 |
| 20260502201632 | 11 | 29 | 4.8 | 12.9 | 0.00 | 0.00 | 0.00 | 46 | 1017.3 |
| 20260502201128 | 11 | 229 | 4.8 | 20.9 | 0.00 | 0.00 | 0.00 | 44 | 1017.3 |
| 20260502200624 | 10 | 192 | 12.9 | 17.7 | 0.00 | 0.00 | 0.00 | 44 | 1017.4 |
| 20260502200121 | 10 | 191 | 8.0 | 20.9 | 0.00 | 0.00 | 0.00 | 48 | 1017.4 |
| 20260502195620 | 11 | 173 | 9.7 | 12.9 | 0.00 | 0.00 | 0.00 | 44 | 1017.5 |
| 20260502195115 | 10 | 219 | 8.0 | 14.5 | 0.00 | 0.00 | 0.00 | 46 | 1017.7 |
| 20260502194612 | 10 | 257 | 9.7 | 22.5 | 0.00 | 0.00 | 0.00 | 46 | 1017.6 |
| 20260502194108 | 11 | 67 | 6.4 | 16.1 | 0.00 | 0.00 | 0.00 | 42 | 1017.7 |
| 20260502193605 | 11 | 254 | 3.2 | 12.9 | 0.00 | 0.00 | 0.00 | 45 | 1017.7 |
| 20260502193102 | 10 | 203 | 11.3 | 14.5 | 0.00 | 0.00 | 0.00 | 48 | 1017.8 |
| 20260502192558 | 10 | 176 | 12.9 | 17.7 | 0.00 | 0.00 | 0.00 | 48 | 1018.0 |
| 20260502192056 | 11 | 220 | 4.8 | 11.3 | 0.00 | 0.00 | 0.00 | 50 | 1017.9 |
| 20260502191552 | 10 | 158 | 4.8 | 11.3 | 0.00 | 0.00 | 0.00 | 47 | 1018.0 |
| 20260502191050 | 11 | 215 | 8.0 | 9.7 | 0.00 | 0.00 | 0.00 | 48 | 1017.9 |
| 20260502190547 | 10 | 153 | 8.0 | 16.1 | 0.00 | 0.00 | 0.00 | 51 | 1018.3 |